Weather in Palchykivka

Ukraine / Poltava Region     49°37′34″N   34°15′35″E
temp.,
°C
wind,
m/s
gust,
m/s
humid.,
%
clouds,
%
prec.,
mm/h
press.,
hPa
HPBL,
m
11 april, sun
sun1100:00+6n34550 0.0 102749
03:00+5nne34580 0.0 102752
06:00+4nne34600 0.0 102852
09:00+9ne46480 0.0 1029418
12:00+13ne55365 0.0 10281368
15:00+14ne56313 0.0 10271477
18:00+13ne5738100 0.0 10261025
21:00+9nne41053100 0.0 1026205
12 april, mon
mon1200:00+8ne41060100 0.0 1026206
03:00+7nne41063100 0.0 1025239
06:00+6ne51070100 0.0 1024291
09:00+9ene5774100 0.0 1023319
12:00+14ne5667100 0.0 1022610
15:00+19ene5752100 0.0 10201392
18:00+18ne4754100 0.0 1019237
21:00+16ese61254100 0.0 1019442
13 april, tue
tue1300:00+13ese61171100 0.0 1019408
03:00+12se4981100 0.0 1020341
06:00+11se378699 0.0 1020348
09:00+12se4679100 0.0 1020414
12:00+14se5670100 0.0 1020875
15:00+13se567188 0.0 1020754
18:00+15se456598 0.1 1019984
21:00+12ese3776100 0.1 1020214
14 april, wed
wed1400:00+12se357857 0.0 1019152
03:00+10se348272 0.0 101996
06:00+10se358383 0.0 1018172
09:00+12sse3470100 0.0 1018514
12:00+15sse3454100 0.0 10171269
15:00+15s3454100 0.0 10161247
18:00+12se4684100 1.1 1016348
21:00+10se3690100 4.3 1016295
15 april, thu
thu1500:00+9ese239113 0.3 101545
03:00+8ese34927 0.3 101558
06:00+7se33905 0.0 101539
09:00+12se34685 0.0 1015439
12:00+15se44515 0.0 10141389
15:00+17se344399 0.0 10132051
18:00+15s225795 0.0 101362
21:00+13wnw2263100 0.1 101334